Location: ????? ??????
(37.8317°N, 23.8750°E)
Time: 13:08:01
(UTC+00:00)

CZ-4 R/B - Pass Details

Date: 20 January 2021
Orbit: 531 x 599 km, 97.7° (Epoch: 03 March)

Event Time Altitude Azimuth Distance (km) Brightness Sun altitude
Rises 16:13:00 0° 136° (SE) 2,808 4.7 -7.8°
Reaches altitude 10° 16:15:31 10° 121° (ESE) 1,902 3.7 -8.3°
Maximum altitude 16:18:44 22° 70° (ENE) 1,270 2.6 -8.9°
Drops below altitude 10° 16:21:55 10° 18° (NNE) 1,882 3.7 -9.5°
Sets 16:24:23 0° 4° (N) 2,771 4.7 -10.0°
